When you browse on this site, cookies collect data to enhance your experience and personalize the content and advertising you see.
Visit our Privacy Policy to learn more. By continuing to use the site, you agree to this use of cookies and data.
  • In Österreich
  • Länderverzeichnis
  • Für 7 Tage
  • Wassertemperatur
  • Wetterkarte
  • News
  • Widgets
  • user-avatar
    Anmelden

    Stündliche Wetter Zatysivka

    Heute, 25 August, Sonntag

    Zeit Temperatur Niederschläge Wind Luftdruck Luftfeuchtigkeit
    00:00 +25°C° 0 mm 2 m/S 755 mmHg 76%
    01:00 +24°C° 0 mm 2 m/S 755 mmHg 76%
    02:00 +21°C° 0 mm 2 m/S 755 mmHg 80%
    03:00 +20°C° 0 mm 2 m/S 754 mmHg 84%
    04:00 +21°C° 0 mm 1 m/S 754 mmHg 83%
    05:00 +21°C° 0 mm 1 m/S 754 mmHg 80%
    06:00 +21°C° 0 mm 1 m/S 755 mmHg 77%
    07:00 +22°C° 0 mm 1 m/S 755 mmHg 78%
    08:00 +24°C° 0 mm 1 m/S 755 mmHg 73%
    09:00 +27°C° 0 mm 1 m/S 755 mmHg 60%
    10:00 +29°C° 0 mm 2 m/S 755 mmHg 55%
    11:00 +31°C° 0 mm 2 m/S 755 mmHg 52%
    12:00 +32°C° 0 mm 2 m/S 755 mmHg 48%
    13:00 +33°C° 0 mm 1 m/S 755 mmHg 46%
    14:00 +33°C° 0 mm 1 m/S 754 mmHg 45%
    15:00 +35°C° 0 mm 2 m/S 754 mmHg 44%
    16:00 +34°C° 0 mm 4 m/S 754 mmHg 45%
    17:00 +28°C° 2.3 mm 3 m/S 754 mmHg 61%
    18:00 +29°C° 0 mm 1 m/S 754 mmHg 63%
    19:00 +27°C° 0 mm 0 m/S 753 mmHg 65%
    20:00 +28°C° 0 mm 1 m/S 754 mmHg 67%
    21:00 +27°C° 0 mm 2 m/S 754 mmHg 71%
    22:00 +26°C° 0 mm 1 m/S 754 mmHg 73%
    23:00 +25°C° 0 mm 2 m/S 755 mmHg 76%

    Morgen, 26 August, Montag

    Zeit Temperatur Niederschläge Wind Luftdruck Luftfeuchtigkeit
    00:00 +25°C° 0 mm 2 m/S 754 mmHg 78%
    01:00 +24°C° 0 mm 3 m/S 754 mmHg 78%
    02:00 +24°C° 0 mm 3 m/S 754 mmHg 79%
    03:00 +22°C° 0 mm 3 m/S 754 mmHg 80%
    04:00 +23°C° 0 mm 2 m/S 754 mmHg 82%
    05:00 +21°C° 0 mm 3 m/S 754 mmHg 83%
    06:00 +21°C° 0 mm 2 m/S 755 mmHg 84%
    07:00 +23°C° 0 mm 2 m/S 755 mmHg 81%
    08:00 +25°C° 0 mm 2 m/S 755 mmHg 75%
    09:00 +27°C° 0 mm 3 m/S 755 mmHg 69%
    10:00 +29°C° 0 mm 4 m/S 756 mmHg 66%
    11:00 +30°C° 0 mm 4 m/S 755 mmHg 63%
    12:00 +31°C° 0 mm 3 m/S 755 mmHg 59%
    13:00 +32°C° 0 mm 2 m/S 754 mmHg 56%
    14:00 +33°C° 0 mm 5 m/S 754 mmHg 56%
    15:00 +33°C° 0 mm 3 m/S 753 mmHg 52%
    16:00 +34°C° 0 mm 3 m/S 753 mmHg 52%
    17:00 +28°C° 0.3 mm 10 m/S 753 mmHg 61%
    18:00 +29°C° 0.1 mm 2 m/S 753 mmHg 56%
    19:00 +29°C° 0 mm 2 m/S 753 mmHg 68%
    20:00 +27°C° 0 mm 3 m/S 753 mmHg 81%
    21:00 +26°C° 0 mm 3 m/S 754 mmHg 84%
    22:00 +26°C° 0 mm 2 m/S 754 mmHg 84%
    23:00 +25°C° 0 mm 2 m/S 754 mmHg 84%

    übermorgen, 27 August, Dienstag

    Zeit Temperatur Niederschläge Wind Luftdruck Luftfeuchtigkeit
    00:00 +24°C° 0 mm 3 m/S 754 mmHg 85%
    01:00 +24°C° 0 mm 3 m/S 754 mmHg 85%
    02:00 +23°C° 0 mm 2 m/S 754 mmHg 84%
    03:00 +23°C° 0 mm 2 m/S 754 mmHg 82%
    04:00 +21°C° 0 mm 2 m/S 754 mmHg 82%
    05:00 +21°C° 0 mm 2 m/S 754 mmHg 82%
    06:00 +21°C° 0 mm 2 m/S 754 mmHg 82%
    07:00 +23°C° 0 mm 2 m/S 755 mmHg 79%
    08:00 +25°C° 0 mm 3 m/S 755 mmHg 72%
    09:00 +26°C° 0 mm 3 m/S 755 mmHg 67%
    10:00 +28°C° 0 mm 3 m/S 755 mmHg 64%
    11:00 +29°C° 0 mm 3 m/S 755 mmHg 62%
    12:00 +30°C° 0 mm 3 m/S 755 mmHg 58%
    13:00 +31°C° 0 mm 3 m/S 754 mmHg 55%
    14:00 +33°C° 0 mm 3 m/S 754 mmHg 52%
    15:00 +34°C° 0 mm 3 m/S 754 mmHg 50%
    16:00 +34°C° 0 mm 3 m/S 753 mmHg 50%
    17:00 +33°C° 0 mm 3 m/S 753 mmHg 53%
    18:00 +31°C° 0 mm 3 m/S 753 mmHg 57%
    19:00 +30°C° 0 mm 1 m/S 753 mmHg 64%
    20:00 +29°C° 0 mm 2 m/S 753 mmHg 69%
    21:00 +27°C° 0 mm 3 m/S 754 mmHg 78%
    22:00 +26°C° 0 mm 4 m/S 754 mmHg 81%
    23:00 +25°C° 0 mm 3 m/S 754 mmHg 83%

    28 August, Mittwoch

    Zeit Temperatur Niederschläge Wind Luftdruck Luftfeuchtigkeit
    00:00 +25°C° 0 mm 2 m/S 754 mmHg 85%
    01:00 +24°C° 0 mm 2 m/S 754 mmHg 85%
    02:00 +24°C° 0 mm 2 m/S 754 mmHg 85%
    03:00 +23°C° 0 mm 2 m/S 754 mmHg 85%
    04:00 +21°C° 0 mm 2 m/S 754 mmHg 84%
    05:00 +21°C° 0 mm 2 m/S 754 mmHg 83%
    06:00 +21°C° 0 mm 3 m/S 754 mmHg 82%
    07:00 +21°C° 0 mm 3 m/S 754 mmHg 79%
    08:00 +23°C° 0 mm 4 m/S 754 mmHg 73%
    09:00 +26°C° 0 mm 4 m/S 754 mmHg 69%
    10:00 +27°C° 0 mm 4 m/S 754 mmHg 68%
    11:00 +28°C° 0 mm 3 m/S 754 mmHg 66%
    12:00 +29°C° 0 mm 3 m/S 754 mmHg 64%
    13:00 +30°C° 0 mm 3 m/S 753 mmHg 61%
    14:00 +31°C° 0 mm 3 m/S 753 mmHg 58%
    15:00 +33°C° 0 mm 3 m/S 752 mmHg 56%
    16:00 +31°C° 0 mm 3 m/S 752 mmHg 58%
    17:00 +31°C° 0 mm 2 m/S 752 mmHg 55%
    18:00 +31°C° 0 mm 2 m/S 752 mmHg 59%
    19:00 +29°C° 0 mm 2 m/S 752 mmHg 70%
    20:00 +28°C° 0 mm 1 m/S 752 mmHg 71%
    21:00 +27°C° 0 mm 2 m/S 752 mmHg 78%
    22:00 +26°C° 0 mm 3 m/S 752 mmHg 82%
    23:00 +25°C° 0 mm 3 m/S 752 mmHg 83%

    29 August, Donnerstag

    Zeit Temperatur Niederschläge Wind Luftdruck Luftfeuchtigkeit
    00:00 +24°C° 0 mm 3 m/S 752 mmHg 84%
    01:00 +24°C° 0 mm 3 m/S 752 mmHg 84%
    02:00 +22°C° 0 mm 3 m/S 752 mmHg 85%

    30 August, Freitag

    Zeit Temperatur Niederschläge Wind Luftdruck Luftfeuchtigkeit
    Mehr zeigen